Regional Weather Roundup
Issued by NWS Memphis, TN

Home | Current Version | Previous Version | Text Only | Print | Product List | Glossary On
Versions: 1 2 3 4 5 6 7 8 9 10 11 12 13 14 15 16 17 18 19 20 21 22 23 24 25 26 27 28 29 30 31 32 33 34 35 36 37 38 39 40 41 42 43 44 45 46 47 48 49 50
000
ASUS44 KMEG 302200
RWRMEG
MEMPHIS CWA HOURLY WEATHER ROUNDUP
NATIONAL WEATHER SERVICE MEMPHIS TN
500 PM CDT SUN APR 30 2017

...WEST TENNESSEE...

CITY           SKY/WX    TMP DP  RH WIND       PRES   REMARKS
MEMPHIS INTL   CLOUDY    70  68  93 S17       29.68F
NWS MEMPHIS      N/A     69 N/A N/A MISG        N/A
JACKSON        CLOUDY    73  66  78 S16G35    29.72R


...EASTERN ARKANSAS...

CITY           SKY/WX    TMP DP  RH WIND       PRES   REMARKS
JONESBORO      CLOUDY    66  60  81 SW28G36   29.63R
WEST MEMPHIS   CLOUDY    70  68  93 S18G30    29.66F
BATESVILLE     PTSUNNY   64  52  63 S18G29    29.63F
NEWPORT        CLOUDY    65  55  70 S23G30    29.63F
WALNUT RIDGE   CLOUDY    66  54  63 SW28G41   29.62R
BLYTHEVILLE    CLOUDY    70  68  93 S18       29.65F
SEARCY         CLOUDY    64  54  69 SW17G24   29.68F
STUTTGART      CLOUDY    64  46  52 S21G30    29.71F
PINE BLUFF     SUNNY     64  49  57 SW20G28   29.73F
MONTICELLO     CLOUDY    65  53  65 SW16      29.74F


...NORTH MISSISSIPPI...

CITY           SKY/WX    TMP DP  RH WIND       PRES   REMARKS
TUPELO         CLOUDY    69  64  84 S17       29.79R
TUNICA         CLOUDY    70  66  88 S17G24    29.69F
CLARKSDALE     CLOUDY    75  70  83 S17G25    29.70F
GREENWOOD      CLOUDY    72  67  84 S17       29.76F
STARKVILLE     CLOUDY    68  64  88 S7        29.80S
GOLDEN TRIANGL CLOUDY    66  61  82 SE12      29.73


...SOUTHEAST MISSOURI...

CITY           SKY/WX    TMP DP  RH WIND       PRES   REMARKS
KENNETT        CLOUDY    70  68  94 S20G28    29.62F
MALDEN         CLOUDY    70  68  94 S23G29    29.63F
WEST PLAINS    SUNNY     67  49  52 S18G29    29.57F
POPLAR BLUFF   CLOUDY    70  66  87 S17G28    29.59F
CAPE GIRARDEAU LGT RAIN  71  66  84 S23G36    29.60F


...NORTHWEST ALABAMA...

CITY           SKY/WX    TMP DP  RH WIND       PRES   REMARKS
MUSCLE SHOALS  CLOUDY    68  63  84 SE20G28   29.78F


...MIDDLE TENNESSEE...

CITY           SKY/WX    TMP DP  RH WIND       PRES   REMARKS
NASHVILLE      CLOUDY    68  65  90 S18       29.81F
CLARKSVILLE    CLOUDY    71  63  75 S10G20    29.76R
COLUMBIA       SUNNY    N/A N/A N/A SE17      29.80F


...WESTERN KENTUCKY...

CITY           SKY/WX    TMP DP  RH WIND       PRES   REMARKS
PADUCAH        CLOUDY    73  66  78 S9G20     29.66S
FORT CAMPBELL  CLOUDY    72  64  77 S12G22    29.75R


...CENTRAL ARKANSAS...

CITY           SKY/WX    TMP DP  RH WIND       PRES   REMARKS
LITTLE ROCK    MOSUNNY   65  52  62 SW23G30   29.70F


SKY/WX REPORTED AS FAIR MEANS FEW OR NO CLOUDS BELOW
12 THOUSAND FEET.





USA.gov is the U.S. government's official web portal to all federal, state and local government web resources and services.